Voltar ao catálogo

STARLINK-34815

AtivoComunicaçõesVLEO
NORAD 65099·PAYLOAD·🇺🇸 United States

Lançado Aug 4, 2025 de Cape Canaveral Space Force Station

Loading…

Próximas Passagens (próximas 24 horas)

TLE

AtualizadoSource: CelesTrak SupGP

Época: Sep 15, 2026, 02:42 UTC

1 65099C 25167X   26258.11298611 -.00041568  00000+0 -12281-2 0  2581
2 65099  53.1573 222.5715 0001274  90.6394 177.4294 15.34412945    17

Acompanhe STARLINK-34815 em tempo real com AllMySat

Download on the App Store